Location: La Pernelle
(49.6188°N, 1.2999°W)
Time: 09:59:50
(UTC+00:00)

Meteor 2-20 - Pass Details

Date: 27 October 2021
Orbit: 939 x 958 km, 82.5° (Epoch: 08 December)

Event Time Altitude Azimuth Distance (km) Brightness Sun altitude
Rises 05:01:40 0° 179° (S) 3,605 7.5 -17.4°
Reaches altitude 10° 05:04:10 10° 177° (S) 2,661 6.8 -17.0°
Maximum altitude 05:10:12 70° 96° (E) 1,006 4.8 -16.0°
Drops below altitude 10° 05:16:15 10° 14° (NNE) 2,669 6.9 -15.1°
Sets 05:18:45 0° 12° (NNE) 3,617 7.6 -14.6°
